{"data":{"norad_id":64800,"intl_designator":"2025-150L","name":"STARLINK-34660","alt_names":[],"object_type":"PAYLOAD","status":"ACTIVE","operator":null,"country":"US","launch_date":"2025-07-16","launch_site_code":"AFWTR","launch_vehicle":null,"mission":null,"orbit_class":"UNKNOWN","rcs_meters":null,"size_class":null,"mass_kg":null,"dimensions":null,"purposes":["comms"],"wikipedia_slug":null,"has_3d_model":false,"image_url":null,"decayed_at":null,"tle_current":{"epoch":"2026-05-25T03:57:17.309088Z","epoch_age_seconds":63886,"freshness":"FRESH","line1":"1 64800U 25150L   26145.16478367  .00002851  00000+0  24664-3 0  9991","line2":"2 64800  70.0006 301.5696 0003012 263.9494  96.1322 14.98335279 47977","mean_motion":14.98335279,"eccentricity":0.0003012,"inclination_deg":70.0006,"raan_deg":301.5696,"arg_perigee_deg":263.9494,"mean_anomaly_deg":96.1322,"bstar":0.00024664,"rev_number":4797,"period_min":96.106660517335,"perigee_km":569.9461729386,"apogee_km":574.13295930203,"semimajor_km":6950.1765661203,"source":"CELESTRAK","updated_at":"2026-05-25T13:38:20.565370Z"}}}